Probability
3 6 9 8 5 3 3 2 1 0 0 0 0 0 0 0 0 1 2 2 1 0 0 0 0 0 0 0 0 0 0 0 0 0 0 1 2 2 2 2 1 1 1
3 7 9 7 5 3 3 2 1 0 0 0 0 0 0 0 0 0 1 1 1 1 0 0 0 0 0 0 0 0 0 1 1 0 0 0 1 1 1 1 0 0 1
4 6 8 7 5 3 3 3 1 1 1 0 0 0 0 0 0 0 0 1 1 1 0 0 0 0 0 0 0 0 1 1 1 0 0 0 0 0 0 0 1 1 2
4 5 7 7 5 3 3 3 3 2 2 1 0 0 0 0 0 0 0 0 0 1 1 1 0 0 0 0 0 0 1 1 1 0 0 0 0 0 0 1 2 2 2
4 5 7 8 5 3 3 3 3 3 2 1 0 0 0 0 0 0 0 0 0 0 1 1 1 0 0 0 0 0 0 0 0 0 0 0 1 1 1 1 1 1 1
3 4 7 8 6 4 3 3 4 3 2 1 0 0 0 0 0 0 0 0 0 0 0 1 1 0 0 0 0 0 0 0 0 0 0 0 1 3 3 2 1 1 1
3 4 6 8 7 5 4 4 5 4 3 1 0 0 0 0 0 0 0 0 0 0 0 0 0 0 0 1 1 0 0 0 0 0 0 1 2 4 4 3 2 2 1
3 4 5 7 7 6 5 5 6 5 3 1 0 0 0 0 0 0 0 1 1 1 0 0 0 0 0 1 1 1 0 0 0 1 1 2 5 6 3 2 3 3 2
4 4 4 5 6 5 5 6 6 6 4 2 1 0 0 0 0 0 0 1 2 1 0 0 0 0 0 1 1 1 0 0 0 1 2 3 5 5 2 1 3 4 4
6 6 4 4 3 3 3 5 6 6 5 3 2 0 0 0 0 0 0 1 1 1 0 0 0 0 0 0 0 0 0 1 1 2 2 4 5 4 1 1 3 4 4
9 8 6 4 3 1 1 2 3 4 4 3 1 0 0 0 0 0 0 0 0 0 0 0 0 0 0 0 0 0 1 2 2 3 3 4 5 3 1 2 4 5 5
10 9 7 5 3 1 0 1 1 1 1 1 0 0 0 0 0 0 0 0 0 0 0 0 0 0 0 0 0 1 2 2 3 3 4 5 6 4 2 4 6 6 5
10 9 7 5 3 1 0 1 1 0 0 0 0 0 0 0 0 0 0 0 0 0 0 0 0 0 0 0 0 1 2 3 4 4 5 8 8 5 4 5 5 5 5
10 9 7 6 4 2 1 1 1 0 0 0 0 0 0 0 0 0 0 0 0 0 0 0 0 0 0 0 0 1 2 4 5 5 6 8 8 6 5 6 5 4 4
9 8 7 6 5 4 3 1 1 1 1 1 1 0 0 0 1 1 1 1 1 0 0 0 0 1 1 0 0 1 2 3 4 5 6 7 7 6 5 5 5 4 4
9 9 8 7 6 6 5 3 2 2 3 4 4 4 4 3 3 3 3 3 2 1 0 0 1 2 1 1 1 1 1 1 3 4 5 6 6 6 5 5 4 4 4
11 11 10 8 7 7 6 4 3 4 6 8 10 11 11 9 7 6 6 5 4 3 2 0 1 1 1 1 1 2 1 1 2 4 5 5 6 6 5 4 4 3 3
10 12 11 9 8 7 6 5 4 6 8 11 12 13 13 11 9 9 8 7 6 5 4 2 2 1 0 0 1 1 2 3 4 5 4 5 7 7 6 5 4 3 2
7 9 12 11 10 8 7 6 5 6 8 10 11 11 9 8 8 8 8 7 6 6 6 5 4 3 1 1 0 1 3 5 5 4 3 4 5 6 5 5 6 6 5
6 9 12 13 11 8 6 6 6 7 8 10 10 8 6 5 4 5 5 5 6 6 6 6 6 4 3 2 1 2 5 6 5 4 3 3 4 4 4 5 6 8 7
9 10 12 12 11 8 6 6 6 7 9 11 11 8 6 3 2 2 2 2 3 4 5 5 5 4 3 3 3 4 6 7 5 4 3 3 3 3 3 4 6 7 8
10 10 11 10 8 7 7 6 6 8 10 12 11 9 6 3 1 1 1 1 1 1 2 2 3 3 3 4 4 5 7 7 6 5 4 3 3 3 3 3 4 5 5
9 9 9 8 7 7 8 8 8 9 11 12 11 9 6 4 3 2 2 1 1 0 0 0 1 2 3 4 5 6 6 6 6 5 3 3 3 3 3 3 2 2 2
7 9 9 9 10 10 10 9 10 11 12 11 10 9 7 5 3 3 3 2 2 2 1 0 1 2 3 4 6 7 6 5 5 4 3 1 2 2 2 1 1 1 2
6 9 11 12 14 13 11 10 10 12 12 11 9 8 7 4 3 3 3 3 3 4 3 2 2 3 3 4 5 7 6 5 4 4 3 1 1 1 1 0 0 1 3
6 8 11 14 15 14 12 9 10 13 14 11 7 7 5 3 2 3 3 3 4 4 5 5 4 4 4 4 4 6 6 4 4 4 3 2 1 0 0 0 1 2 4
Wind_Speed
6 10 11 7 6 6 6 6 6 7 7 7 7 6 6 6 5 5 5 5 4 4 4 4 4 5 4 5 4 4 4 6 7 8 8 8 8 8 8 8 8 7 10
8 11 12 8 7 6 7 6 6 6 6 6 6 6 6 5 5 5 4 4 4 3 3 4 4 4 4 4 4 4 3 5 7 8 8 9 9 8 8 7 5 5 10
9 11 11 8 7 7 7 6 6 6 6 6 6 6 5 5 5 4 4 4 4 4 3 3 4 3 3 4 4 4 3 4 6 7 8 7 8 9 8 7 7 7 8
9 10 9 10 7 7 7 7 7 7 6 6 5 5 5 5 4 4 4 4 4 4 3 3 3 3 2 3 3 4 4 4 5 7 6 5 6 9 8 8 8 8 8
9 10 11 9 7 7 7 7 7 6 6 6 5 5 5 4 4 4 4 4 4 4 3 3 3 2 2 2 3 3 4 4 5 7 4 4 4 9 8 8 8 8 8
9 10 12 9 7 7 7 6 6 6 5 5 4 4 4 4 3 3 3 3 3 3 3 3 2 1 2 2 2 3 3 4 6 5 3 3 4 8 8 8 8 8 8
8 9 12 9 7 6 6 6 5 5 5 4 4 4 3 3 3 2 2 2 3 3 3 3 3 1 1 1 2 3 3 4 4 3 3 3 5 9 8 8 8 8 8
8 8 11 10 7 6 6 5 5 4 4 4 3 3 3 3 3 3 3 3 3 3 3 3 3 2 2 1 1 2 3 5 4 3 3 3 7 8 8 8 8 8 8
7 7 8 9 9 8 6 5 4 4 3 3 3 3 3 3 3 3 4 4 3 3 2 2 2 2 1 1 0 1 2 4 3 2 3 3 8 8 8 7 8 8 8
7 6 6 6 6 7 8 7 4 4 3 3 3 3 2 2 3 2 2 3 2 2 2 2 1 1 1 1 0 1 3 4 3 2 2 5 9 8 8 8 8 8 8
6 5 5 5 5 4 4 6 6 5 4 4 4 3 3 2 2 3 4 4 3 2 1 1 1 1 1 2 1 1 3 2 1 1 2 7 9 8 8 8 8 8 7
8 6 5 4 4 4 3 4 3 3 3 2 1 1 0 1 1 1 4 2 1 1 0 1 1 2 3 1 3 4 1 1 1 2 4 8 8 8 8 8 8 8 7
8 6 5 4 3 3 3 2 1 1 2 2 1 0 1 1 0 0 0 2 2 2 1 2 1 0 1 1 1 0 0 0 0 1 4 8 7 7 7 7 7 7 7
7 6 5 4 3 2 2 1 1 1 1 1 1 1 1 1 1 1 1 1 1 1 1 1 1 2 2 1 1 2 1 0 1 1 4 7 6 7 7 7 7 7 7
6 6 5 4 3 2 2 1 1 1 1 1 0 0 1 1 1 1 1 1 2 1 0 0 1 1 1 1 1 2 2 2 1 1 3 7 6 6 7 7 7 7 6
6 5 4 4 4 3 2 1 1 1 1 0 0 0 1 1 1 2 1 1 1 1 1 1 1 1 1 1 2 2 2 1 1 0 1 4 7 7 7 6 6 6 6
6 5 5 5 4 3 2 2 2 1 1 0 0 0 1 1 1 2 1 1 1 1 0 0 0 0 0 1 1 2 1 2 2 1 1 1 3 7 8 7 6 6 6
6 6 5 4 5 4 2 1 1 1 0 0 0 0 1 1 2 2 1 1 1 1 1 0 1 1 1 1 1 2 1 1 1 1 1 1 0 1 6 7 5 5 5
6 6 6 5 5 4 3 2 1 1 0 1 0 0 0 1 2 2 1 1 1 1 1 1 1 1 1 1 1 0 1 1 1 1 1 1 2 1 1 5 6 4 4
6 6 6 5 4 4 4 3 2 1 1 1 0 0 1 1 2 2 1 1 2 1 1 0 1 1 1 1 1 1 1 0 0 1 1 1 2 1 1 1 3 4 6
6 6 6 6 5 4 3 3 2 2 2 1 1 0 1 2 1 2 2 1 2 1 1 2 1 2 2 1 2 1 1 1 1 1 1 1 2 2 2 1 0 1 3
8 7 7 6 5 5 3 2 2 1 1 1 1 0 2 2 2 2 2 2 2 1 2 2 2 2 2 1 2 2 2 3 2 1 1 2 1 1 1 1 1 1 1
8 8 6 6 5 4 3 3 2 2 3 2 2 1 1 2 2 2 2 2 2 3 2 2 3 3 3 2 2 3 2 1 1 2 2 1 1 1 1 1 1 0 0
7 7 6 6 5 4 4 3 3 2 2 1 1 1 1 1 2 2 2 2 3 2 2 3 2 3 3 3 2 2 2 2 2 1 2 2 2 1 0 0 0 1 0
6 6 6 6 5 4 4 3 3 3 2 1 1 1 2 1 1 2 2 2 2 2 2 3 2 3 3 3 2 1 1 2 3 2 0 0 1 1 0 0 0 0 0
5 5 6 6 5 4 4 3 3 3 2 2 2 1 2 1 1 1 2 2 2 2 2 3 3 3 3 3 3 2 2 2 2 2 1 1 0 0 0 0 1 0 0
Wind_Direction
127 120 126 133 126 121 119 116 112 112 109 107 104 106 109 110 111 107 109 113 125 137 142 141 139 136 140 140 140 143 147 146 146 146 146 147 152 156 157 160 165 155 135
123 121 126 129 127 123 121 119 113 110 109 104 103 103 106 105 104 102 100 102 108 124 139 140 138 139 138 147 152 154 155 159 157 157 159 158 160 161 161 163 169 131 141
126 125 134 128 128 125 122 121 118 113 109 105 101 102 103 104 102 101 98 95 101 109 124 133 135 141 138 146 152 153 154 171 172 177 186 181 163 165 167 165 159 144 145
127 129 127 126 127 123 122 120 118 115 110 106 104 103 99 97 98 97 96 91 92 98 110 126 130 137 139 145 148 147 151 165 182 195 199 181 164 154 167 168 163 155 148
132 127 118 131 129 124 122 120 119 116 112 106 101 98 94 93 92 93 91 90 89 87 91 107 117 135 148 141 143 146 150 167 187 213 193 169 153 143 162 167 163 156 151
133 126 121 133 130 126 122 120 119 117 114 111 105 98 95 92 89 86 89 97 97 92 87 82 91 130 148 145 143 152 161 185 212 201 177 172 158 142 157 165 162 160 158
130 125 124 134 133 129 124 120 117 114 113 114 109 100 91 86 77 70 69 112 107 92 85 75 63 75 123 138 159 168 183 204 224 179 169 168 140 139 156 160 156 154 153
130 126 126 137 141 137 130 125 120 114 109 111 105 96 82 76 69 61 55 107 110 89 78 71 66 65 74 104 173 190 203 226 201 174 174 149 126 144 158 160 155 153 153
135 133 137 145 150 153 145 134 123 117 112 112 106 96 84 76 72 69 66 83 96 91 80 73 57 50 55 67 201 220 213 229 243 183 172 141 133 152 162 165 160 156 155
140 139 143 147 146 159 151 142 135 128 126 125 119 108 110 131 127 112 117 85 73 77 72 62 47 43 59 60 4 237 219 224 234 187 156 128 139 154 159 158 161 162 163
145 146 150 147 149 157 142 137 156 156 155 176 159 159 206 170 126 142 73 68 52 47 59 58 55 81 169 169 162 237 235 231 201 160 127 122 145 157 162 162 163 164 167
154 154 154 154 153 157 140 145 170 167 150 182 100 143 194 57 41 23 93 96 64 53 128 96 93 189 231 196 167 204 226 207 203 147 133 140 155 164 168 168 168 171 175
151 153 157 153 154 159 151 151 162 157 144 168 142 248 338 319 13 342 45 156 168 184 173 133 193 288 44 17 349 11 337 314 120 146 129 143 158 166 169 173 173 179 183
154 158 151 151 155 158 131 147 184 171 157 159 122 272 300 317 334 359 345 350 341 41 40 8 40 46 37 19 0 14 14 61 131 133 119 136 154 167 175 181 183 188 191
157 153 151 155 139 138 143 201 159 175 182 139 137 335 315 307 330 340 354 338 327 359 65 74 54 65 37 41 8 19 14 24 41 83 129 142 161 180 184 187 190 192 193
159 155 147 162 149 156 159 175 164 168 163 237 178 1 298 316 334 321 324 322 323 338 359 356 36 53 34 22 13 12 5 16 49 328 183 156 168 178 184 186 190 191 191
164 156 155 161 148 158 169 186 175 186 180 197 70 269 285 286 302 297 291 282 318 329 292 265 340 13 50 28 9 1 356 0 21 12 338 287 169 172 179 184 192 194 192
164 158 164 164 154 158 174 203 192 182 165 175 286 55 297 302 293 288 303 305 315 287 291 277 282 19 33 1 354 345 348 1 358 6 352 15 4 164 160 166 185 189 192
168 167 171 174 167 163 170 185 196 179 283 287 291 312 334 292 288 284 298 329 270 270 298 294 36 349 6 339 313 306 319 329 340 359 17 32 51 55 100 136 153 168 185
168 169 174 179 168 173 178 181 196 200 210 242 275 353 312 287 282 284 251 264 268 259 261 316 310 298 289 274 295 344 307 306 324 27 12 73 77 90 84 93 158 160 164
169 172 177 178 166 185 193 206 203 200 206 200 214 318 278 281 276 272 283 231 255 246 273 263 252 227 240 239 242 219 163 163 142 147 99 68 86 88 93 97 109 98 155
177 178 179 179 174 190 182 210 226 247 231 209 246 239 276 276 275 248 263 258 245 238 241 262 271 269 259 261 283 270 200 164 161 128 126 125 99 103 102 111 112 126 278
181 184 183 181 181 190 191 203 197 201 220 204 208 204 249 268 262 282 271 268 262 257 250 253 252 255 267 258 276 295 302 27 97 139 128 116 109 92 90 101 131 132 264
183 179 178 179 183 186 197 211 221 228 238 244 251 222 229 244 267 263 268 261 267 267 259 251 243 268 271 269 237 257 300 329 300 153 153 131 126 113 61 346 86 130 152
179 177 175 176 181 185 200 203 226 241 246 243 252 246 265 235 260 272 265 263 258 264 273 282 274 272 267 276 276 252 237 238 246 261 239 138 149 114 83 247 289 31 83
169 173 170 169 175 184 200 207 226 246 261 270 270 264 246 236 243 260 259 258 257 270 265 265 263 253 271 288 284 267 252 249 234 246 228 228 245 71 46 265 252 221 178